SCP
0 0 0 0 0 0 0 0 0 0 0 0 0 0 0 0 0 0 0 0 0 0 0 0 0 0 0 0 0 0 0 0 0 0 0 0 0 0 0 0 0 0 0
0 0 0 0 0 0 0 0 0 0 0 0 0 0 0 0 0 0 0 0 0 0 0 0 0 0 0 0 0 0 0 0 0 0 0 0 0 0 0 0 0 0 0
0 0 0 0 0 0 0 0 0 0 0 0 0 0 0 0 0 0 0 0 0 0 0 0 0 0 0 0 0 0 0 0 0 0 0 0 0 0 0 0 0 0 0
0 0 0 0 0 0 0 0 0 0 0 0 0 0 0 0 0 0 0 0 0 0 0 0 0 0 0 0 0 0 0 0 0 0 0 0 0 0 0 0 0 0 0
0 0 0 0 0 0 0 0 0 0 0 0 0 0 0 0 0 0 0 0 0 0 0 0 0 0 0 0 0 0 0 0 0 0 0 0 0 0 0 0 0 0 0
0 0 0 0 0 0 0 0 0 0 0 0 0 0 0 0 0 0 0 0 0 0 0 0 0 0 0 0 0 0 0 0 0 0 0 0 0 0 0 0 0 0 0
0 0 0 0 0 0 0 0 0 0 0 0 0 0 0 0 0 0 0 0 0 0 0 0 0 0 0 0 0 0 0 0 0 0 0 0 0 0 0 0 0 0 0
0 0 0 0 0 0 0 0 0 0 0 0 0 0 0 0 0 0 0 0 0 0 0 0 0 0 0 0 0 0 0 0 0 0 0 0 0 0 0 0 0 0 0
0 0 0 0 0 0 0 0 0 0 0 0 0 0 0 0 0 0 0 0 0 0 0 0 0 0 0 0 0 0 0 0 0 0 0 0 0 0 0 0 0 0 0
0 0 0 0 0 0 0 0 0 0 0 0 0 0 0 0 0 0 0 0 0 0 0 0 0 0 0 0 0 0 0 0 0 0 0 0 0 0 0 0 0 0 0
0 0 0 0 0 0 0 0 0 0 0 0 0 0 0 0 0 0 0 0 0 0 0 0 0 0 0 0 0 0 0 0 0 0 -0 -0 0 0 0 -0 0 0 0
0 0 0 0 0 0 0 0 0 0 0 0 0 0 0 0 0 0 0 0 0 0 0 0 0 0 0 0 0 0 0 0 0 0 0 0 -0 -0 -0 0 0 0 0
0 0 0 0 0 0 0 0 0 0 0 0 0 0 0 0 0 0 0 0 0 0 0 0 0 0 0 0 0 0 0 0 0 0 0 0 0 -0 0 0 0 0 0
0 0 0 0 0 0 0 0 0 0 0 0 0 0 0 0 0 0 0 0 0 0 0 0 0 0 0 0 0 0 0 0 0 0 0 0 0 0 0 0 0 0 0
0 0 0 0 0 0 0 0 0 0 0 0 0 0 0 0 0 0 0 0 0 0 0 0 0 0 0 0 0 0 0 0 0 0 0 0 0 0 0 0 0 0 0
0 0 0 0 0 0 0 0 0 0 0 0 0 0 0 0 0 0 0 0 0 0 0 0 0 0 0 0 0 0 0 0 0 0 0 0 0 0 0 0 0 0 0
0 0 0 0 0 0 0 0 0 0 0 0 0 0 0 0 0 0 0 0 0 0 0 0 0 0 0 0 0 0 0 0 0 0 0 0 0 0 0 0 0 0 0
0 0 0 0 0 0 0 0 0 0 0 0 0 0 0 0 0 0 0 0 0 0 0 0 0 0 0 0 0 0 0 0 0 0 0 0 0 0 0 0 0 0 0
0 0 0 0 0 0 0 0 0 0 0 0 0 0 0 0 0 0 0 0 0 0 0 0 0 0 0 0 0 0 0 0 0 0 0 0 0 0 0 0 0 0 0
0 0 0 0 0 0 0 0 0 0 0 0 0 0 0 0 0 0 0 0 0 0 0 0 0 0 0 0 0 0 0 0 0 0 0 0 0 0 0 0 0 0 0
0 0 0 0 0 0 0 0 0 0 0 0 0 0 0 0 0 0 0 0 0 0 0 0 0 0 0 0 0 0 0 0 0 0 0 0 0 0 0 0 0 0 0
0 0 0 0 0 0 0 0 0 0 0 0 0 0 0 0 0 0 0 0 0 0 0 0 0 0 0 0 0 0 0 0 0 0 0 0 0 0 0 0 0 0 0
0 0 0 0 0 0 0 0 0 0 0 0 0 0 0 0 0 0 0 0 0 0 0 0 0 0 0 0 0 0 0 0 0 0 0 0 0 0 0 0 0 0 0
0 0 0 0 0 0 0 0 0 0 0 0 0 0 0 0 0 0 0 0 0 0 0 0 0 0 0 0 0 0 0 0 0 0 0 0 0 0 0 0 0 0 0
0 0 0 0 0 0 0 0 0 0 0 0 0 0 0 0 0 0 0 0 0 0 0 0 0 0 0 0 0 0 0 0 0 0 0 0 0 0 0 0 0 0 0
0 0 0 0 0 0 0 0 0 0 0 0 0 0 0 0 0 0 0 0 0 0 0 0 0 0 0 0 0 0 0 0 0 0 0 0 0 0 0 0 0 0 0
Wind_Speed_500mb
32 34 36 38 41 42 41 40 40 41 40 40 41 40 39 37 36 36 37 39 40 39 39 38 38 39 40 43 45 48 50 53 57 59 60 59 55 60 61 63 56 71 88
34 37 38 40 42 42 43 42 41 40 38 37 36 37 35 34 33 32 30 31 32 33 35 35 36 36 38 39 41 43 45 48 52 57 61 64 67 64 70 70 66 64 62
35 37 40 41 42 41 40 41 41 39 36 32 30 30 30 31 30 29 26 25 24 24 26 27 28 29 30 33 35 38 40 43 46 49 54 58 62 66 65 71 73 79 77
37 40 41 42 41 40 39 37 37 35 33 31 28 26 26 26 27 27 25 24 22 20 20 21 22 24 27 29 31 33 36 38 41 44 47 49 54 59 63 66 72 71 83
41 42 43 43 40 39 39 37 35 33 30 29 26 23 24 24 25 24 23 20 18 17 15 14 18 22 25 28 29 32 33 36 40 45 49 53 56 60 64 68 70 75 76
47 46 43 40 39 39 38 37 35 31 29 26 22 20 21 22 24 25 23 20 18 15 14 15 19 24 26 29 32 35 39 44 46 47 50 54 58 61 64 67 69 75 74
42 39 40 41 40 39 38 36 32 28 26 21 15 14 16 19 25 27 26 21 17 13 14 19 25 29 32 33 35 39 41 42 45 50 54 55 59 63 68 72 73 67 63
42 43 43 44 43 39 37 33 29 25 24 18 13 13 10 13 23 30 25 14 14 12 17 24 28 31 32 33 34 36 39 42 44 46 49 52 57 61 65 68 69 64 62
49 49 47 44 42 38 36 32 28 24 20 18 14 12 8 9 16 29 31 29 24 17 22 25 27 27 27 28 30 33 37 40 39 44 49 53 56 60 64 65 66 65 64
51 51 48 43 40 37 35 32 30 25 21 18 16 16 17 14 8 7 21 34 35 28 22 22 19 19 19 22 26 31 35 36 42 47 52 57 58 62 66 64 56 57 58
47 48 44 40 37 35 34 32 31 29 26 25 22 19 18 17 20 17 10 21 28 24 13 12 11 11 12 20 25 29 33 39 44 48 53 54 58 63 66 62 53 53 57
43 42 39 37 36 34 33 33 30 28 26 25 24 22 18 12 11 14 16 23 26 19 17 8 6 9 13 21 26 30 33 39 44 50 51 50 57 63 60 54 53 54 56
38 38 36 36 35 35 34 33 31 29 27 25 24 22 22 22 23 22 24 24 21 25 10 9 6 10 21 30 31 33 33 35 40 46 45 48 54 55 55 56 56 59 64
36 37 37 38 38 39 37 36 33 31 29 27 26 25 26 25 23 23 24 21 21 18 20 10 9 17 34 37 37 37 35 32 35 41 44 47 45 49 55 60 65 63 63
38 37 38 40 41 40 39 37 36 32 31 29 28 27 25 25 25 25 28 22 21 12 11 12 21 34 36 37 37 37 34 33 36 43 44 46 46 48 57 59 60 50 51
35 37 38 37 36 35 35 35 34 32 32 29 26 24 21 23 25 27 23 22 24 26 20 28 37 36 32 33 32 32 32 37 40 44 44 47 49 53 55 56 59 58 57
30 30 31 32 32 32 32 33 33 32 30 26 22 19 19 23 23 19 21 22 20 24 38 41 33 30 27 31 29 29 33 38 39 39 41 46 48 48 49 54 59 60 64
27 26 30 32 33 33 31 31 30 28 27 23 20 17 16 16 14 15 17 18 16 19 31 40 29 29 27 29 33 34 32 32 35 37 39 37 38 41 43 47 52 56 59
24 25 27 29 29 29 30 28 27 26 24 24 24 24 23 20 16 17 16 16 16 20 25 35 37 30 30 30 32 29 29 30 33 28 30 34 33 39 43 45 46 47 50
26 26 25 25 26 29 28 26 26 26 28 29 30 31 30 28 25 25 23 23 25 27 30 34 35 34 33 31 34 40 34 29 30 22 29 35 35 38 41 42 44 45 42
27 27 26 26 27 26 25 27 28 29 31 32 33 35 34 33 32 31 32 30 32 33 34 34 35 35 32 34 35 38 44 45 34 30 34 36 31 37 41 40 41 42 42
32 33 29 28 28 29 28 31 33 35 37 40 40 38 40 40 37 37 39 38 39 39 39 38 39 37 36 35 39 38 41 47 45 38 47 36 32 35 40 38 39 40 43
38 38 36 37 35 34 33 37 39 43 46 47 46 45 45 46 44 46 44 46 47 45 46 43 47 43 42 39 40 42 40 42 45 47 51 49 35 36 41 40 35 36 39
44 45 45 46 47 45 44 46 47 52 55 54 53 52 52 51 51 49 50 52 54 51 51 48 52 50 45 43 43 44 46 47 48 45 42 53 44 40 44 41 33 32 40
44 47 50 52 55 56 54 54 57 60 63 64 62 61 59 58 56 51 54 58 60 57 55 49 54 53 50 48 47 48 47 47 52 45 49 43 39 53 50 38 29 31 41
38 41 44 48 53 57 56 58 61 65 70 72 71 70 67 65 61 58 59 59 66 63 59 52 54 57 54 52 50 50 48 51 47 49 34 33 49 46 30 39 27 50 43
Wind_Direction_500mb
288 292 295 298 301 302 301 299 297 294 290 287 284 280 275 270 265 262 260 259 258 257 256 256 257 258 259 261 264 264 263 264 267 269 269 270 269 271 271 274 273 266 266
286 289 292 295 297 299 300 299 297 295 291 286 280 276 272 268 264 260 258 259 257 255 254 254 254 255 256 258 260 262 264 265 265 268 271 274 273 269 270 270 273 274 273
287 288 291 294 295 296 297 299 299 297 292 286 278 271 267 265 262 258 254 251 251 249 249 249 251 254 256 256 259 262 266 269 272 276 281 285 287 286 281 278 271 266 265
291 292 292 294 295 296 296 297 296 293 289 284 277 270 263 257 255 252 246 240 237 239 247 252 257 261 264 265 267 269 274 281 286 289 291 294 295 295 295 292 290 282 274
293 293 293 292 292 294 297 295 292 289 283 278 277 268 258 249 243 238 231 222 219 224 238 254 262 266 270 273 279 282 287 291 293 296 298 301 302 303 303 301 296 293 288
293 290 288 288 291 293 294 293 290 284 280 275 271 265 249 238 226 215 207 206 209 222 246 263 274 279 285 292 298 301 302 299 299 300 300 300 301 301 300 300 300 298 295
288 287 288 289 290 291 290 288 284 280 276 271 271 248 244 226 210 205 202 206 228 239 275 290 297 298 300 304 306 302 302 304 304 301 303 303 301 300 301 301 300 301 300
283 284 285 286 288 288 285 280 276 273 269 262 245 230 210 217 211 206 206 218 229 255 287 292 295 297 300 302 300 300 300 301 300 300 305 312 314 314 312 309 307 304 302
281 281 281 281 282 281 278 274 268 262 259 260 242 212 221 208 207 227 228 246 226 255 292 296 295 295 296 297 302 302 299 301 311 316 315 315 314 314 313 311 308 304 301
278 278 278 277 275 273 270 266 264 258 253 246 245 230 224 210 201 211 232 223 240 269 285 306 299 291 295 302 304 304 306 313 313 312 318 319 317 316 316 311 306 302 299
276 275 274 273 269 266 264 261 259 256 252 246 238 234 233 231 225 228 247 248 253 274 291 319 285 269 284 300 307 306 313 315 315 323 324 323 321 316 312 308 303 303 304
275 271 269 266 262 260 260 261 259 256 252 249 247 241 235 225 226 235 256 275 287 287 322 328 248 277 284 313 319 312 315 313 322 324 321 321 319 317 317 308 308 307 306
273 269 266 262 259 259 260 261 259 255 250 249 250 251 251 252 249 255 265 281 293 306 309 209 287 290 315 324 320 311 313 318 325 328 324 324 320 315 315 315 314 308 306
269 269 267 263 263 262 260 258 255 252 251 252 253 256 259 260 260 259 260 268 299 264 301 307 315 328 323 320 318 307 308 314 319 323 322 323 320 320 316 313 315 305 307
269 266 266 266 265 262 256 252 251 251 251 254 259 262 262 265 262 255 252 250 257 297 300 310 336 331 330 327 330 320 313 313 314 310 311 312 314 314 316 308 317 314 318
268 270 268 266 262 256 252 249 249 249 252 256 258 260 263 264 261 252 247 249 254 260 274 303 320 324 332 334 336 333 325 314 311 306 304 306 304 304 308 311 312 313 313
265 265 266 261 255 251 249 247 247 248 250 250 248 252 259 258 255 256 248 245 247 261 278 295 315 332 340 339 348 346 334 325 319 311 311 313 311 309 310 310 310 312 309
267 266 260 259 255 250 248 246 244 245 244 237 234 238 246 254 257 252 245 243 248 262 279 292 316 329 340 342 346 349 346 337 325 317 314 317 322 324 323 321 318 314 309
264 268 268 262 253 247 245 244 244 243 236 228 231 239 249 257 260 259 250 248 256 262 274 290 304 322 331 336 340 345 351 347 343 340 335 333 335 337 333 333 332 324 312
260 261 263 263 256 251 249 248 246 240 233 235 242 250 251 255 256 259 261 262 266 270 276 284 297 307 315 325 329 334 340 351 349 348 348 344 341 345 346 343 344 343 333
259 258 259 261 259 259 259 254 246 237 241 246 248 251 255 258 260 261 264 266 267 268 272 280 286 296 307 312 320 327 328 332 341 334 345 346 342 342 346 346 346 345 347
264 259 259 262 263 261 256 249 246 248 250 252 254 258 261 262 263 265 266 264 264 266 269 272 278 283 295 303 309 316 320 324 332 330 329 341 332 335 339 337 340 342 346
263 267 265 264 262 257 251 249 252 254 255 257 260 260 261 264 265 265 266 268 267 266 268 270 273 278 287 297 299 305 309 310 312 321 322 323 325 327 331 331 329 338 342
267 265 265 265 264 260 255 255 255 257 259 259 260 262 263 265 265 266 266 266 266 267 266 269 273 279 283 288 291 294 299 303 305 309 314 312 317 316 323 322 313 325 335
267 268 268 265 264 263 260 257 256 257 259 262 263 264 265 267 268 268 266 267 268 267 267 267 269 273 277 280 283 287 293 299 303 304 307 302 306 313 319 317 303 309 323
273 270 269 268 268 267 265 261 259 260 261 263 264 266 266 266 268 268 266 265 268 269 272 268 265 269 271 273 277 280 284 287 289 298 297 295 301 312 316 308 297 311 313
Wind_Speed_850mb
32 34 36 38 41 42 41 40 40 41 40 40 41 40 39 37 36 36 37 39 40 39 39 38 38 39 40 43 45 48 50 53 57 59 60 59 55 60 61 63 56 71 88
34 37 38 40 42 42 43 42 41 40 38 37 36 37 35 34 33 32 30 31 32 33 35 35 36 36 38 39 41 43 45 48 52 57 61 64 67 64 70 70 66 64 62
35 37 40 41 42 41 40 41 41 39 36 32 30 30 30 31 30 29 26 25 24 24 26 27 28 29 30 33 35 38 40 43 46 49 54 58 62 66 65 71 73 79 77
37 40 41 42 41 40 39 37 37 35 33 31 28 26 26 26 27 27 25 24 22 20 20 21 22 24 27 29 31 33 36 38 41 44 47 49 54 59 63 66 72 71 83
41 42 43 43 40 39 39 37 35 33 30 29 26 23 24 24 25 24 23 20 18 17 15 14 18 22 25 28 29 32 33 36 40 45 49 53 56 60 64 68 70 75 76
47 46 43 40 39 39 38 37 35 31 29 26 22 20 21 22 24 25 23 20 18 15 14 15 19 24 26 29 32 35 39 44 46 47 50 54 58 61 64 67 69 75 74
42 39 40 41 40 39 38 36 32 28 26 21 15 14 16 19 25 27 26 21 17 13 14 19 25 29 32 33 35 39 41 42 45 50 54 55 59 63 68 72 73 67 63
42 43 43 44 43 39 37 33 29 25 24 18 13 13 10 13 23 30 25 14 14 12 17 24 28 31 32 33 34 36 39 42 44 46 49 52 57 61 65 68 69 64 62
49 49 47 44 42 38 36 32 28 24 20 18 14 12 8 9 16 29 31 29 24 17 22 25 27 27 27 28 30 33 37 40 39 44 49 53 56 60 64 65 66 65 64
51 51 48 43 40 37 35 32 30 25 21 18 16 16 17 14 8 7 21 34 35 28 22 22 19 19 19 22 26 31 35 36 42 47 52 57 58 62 66 64 56 57 58
47 48 44 40 37 35 34 32 31 29 26 25 22 19 18 17 20 17 10 21 28 24 13 12 11 11 12 20 25 29 33 39 44 48 53 54 58 63 66 62 53 53 57
43 42 39 37 36 34 33 33 30 28 26 25 24 22 18 12 11 14 16 23 26 19 17 8 6 9 13 21 26 30 33 39 44 50 51 50 57 63 60 54 53 54 56
38 38 36 36 35 35 34 33 31 29 27 25 24 22 22 22 23 22 24 24 21 25 10 9 6 10 21 30 31 33 33 35 40 46 45 48 54 55 55 56 56 59 64
36 37 37 38 38 39 37 36 33 31 29 27 26 25 26 25 23 23 24 21 21 18 20 10 9 17 34 37 37 37 35 32 35 41 44 47 45 49 55 60 65 63 63
38 37 38 40 41 40 39 37 36 32 31 29 28 27 25 25 25 25 28 22 21 12 11 12 21 34 36 37 37 37 34 33 36 43 44 46 46 48 57 59 60 50 51
35 37 38 37 36 35 35 35 34 32 32 29 26 24 21 23 25 27 23 22 24 26 20 28 37 36 32 33 32 32 32 37 40 44 44 47 49 53 55 56 59 58 57
30 30 31 32 32 32 32 33 33 32 30 26 22 19 19 23 23 19 21 22 20 24 38 41 33 30 27 31 29 29 33 38 39 39 41 46 48 48 49 54 59 60 64
27 26 30 32 33 33 31 31 30 28 27 23 20 17 16 16 14 15 17 18 16 19 31 40 29 29 27 29 33 34 32 32 35 37 39 37 38 41 43 47 52 56 59
24 25 27 29 29 29 30 28 27 26 24 24 24 24 23 20 16 17 16 16 16 20 25 35 37 30 30 30 32 29 29 30 33 28 30 34 33 39 43 45 46 47 50
26 26 25 25 26 29 28 26 26 26 28 29 30 31 30 28 25 25 23 23 25 27 30 34 35 34 33 31 34 40 34 29 30 22 29 35 35 38 41 42 44 45 42
27 27 26 26 27 26 25 27 28 29 31 32 33 35 34 33 32 31 32 30 32 33 34 34 35 35 32 34 35 38 44 45 34 30 34 36 31 37 41 40 41 42 42
32 33 29 28 28 29 28 31 33 35 37 40 40 38 40 40 37 37 39 38 39 39 39 38 39 37 36 35 39 38 41 47 45 38 47 36 32 35 40 38 39 40 43
38 38 36 37 35 34 33 37 39 43 46 47 46 45 45 46 44 46 44 46 47 45 46 43 47 43 42 39 40 42 40 42 45 47 51 49 35 36 41 40 35 36 39
44 45 45 46 47 45 44 46 47 52 55 54 53 52 52 51 51 49 50 52 54 51 51 48 52 50 45 43 43 44 46 47 48 45 42 53 44 40 44 41 33 32 40
44 47 50 52 55 56 54 54 57 60 63 64 62 61 59 58 56 51 54 58 60 57 55 49 54 53 50 48 47 48 47 47 52 45 49 43 39 53 50 38 29 31 41
38 41 44 48 53 57 56 58 61 65 70 72 71 70 67 65 61 58 59 59 66 63 59 52 54 57 54 52 50 50 48 51 47 49 34 33 49 46 30 39 27 50 43
Wind_Direction_850mb
288 292 295 298 301 302 301 299 297 294 290 287 284 280 275 270 265 262 260 259 258 257 256 256 257 258 259 261 264 264 263 264 267 269 269 270 269 271 271 274 273 266 266
286 289 292 295 297 299 300 299 297 295 291 286 280 276 272 268 264 260 258 259 257 255 254 254 254 255 256 258 260 262 264 265 265 268 271 274 273 269 270 270 273 274 273
287 288 291 294 295 296 297 299 299 297 292 286 278 271 267 265 262 258 254 251 251 249 249 249 251 254 256 256 259 262 266 269 272 276 281 285 287 286 281 278 271 266 265
291 292 292 294 295 296 296 297 296 293 289 284 277 270 263 257 255 252 246 240 237 239 247 252 257 261 264 265 267 269 274 281 286 289 291 294 295 295 295 292 290 282 274
293 293 293 292 292 294 297 295 292 289 283 278 277 268 258 249 243 238 231 222 219 224 238 254 262 266 270 273 279 282 287 291 293 296 298 301 302 303 303 301 296 293 288
293 290 288 288 291 293 294 293 290 284 280 275 271 265 249 238 226 215 207 206 209 222 246 263 274 279 285 292 298 301 302 299 299 300 300 300 301 301 300 300 300 298 295
288 287 288 289 290 291 290 288 284 280 276 271 271 248 244 226 210 205 202 206 228 239 275 290 297 298 300 304 306 302 302 304 304 301 303 303 301 300 301 301 300 301 300
283 284 285 286 288 288 285 280 276 273 269 262 245 230 210 217 211 206 206 218 229 255 287 292 295 297 300 302 300 300 300 301 300 300 305 312 314 314 312 309 307 304 302
281 281 281 281 282 281 278 274 268 262 259 260 242 212 221 208 207 227 228 246 226 255 292 296 295 295 296 297 302 302 299 301 311 316 315 315 314 314 313 311 308 304 301
278 278 278 277 275 273 270 266 264 258 253 246 245 230 224 210 201 211 232 223 240 269 285 306 299 291 295 302 304 304 306 313 313 312 318 319 317 316 316 311 306 302 299
276 275 274 273 269 266 264 261 259 256 252 246 238 234 233 231 225 228 247 248 253 274 291 319 285 269 284 300 307 306 313 315 315 323 324 323 321 316 312 308 303 303 304
275 271 269 266 262 260 260 261 259 256 252 249 247 241 235 225 226 235 256 275 287 287 322 328 248 277 284 313 319 312 315 313 322 324 321 321 319 317 317 308 308 307 306
273 269 266 262 259 259 260 261 259 255 250 249 250 251 251 252 249 255 265 281 293 306 309 209 287 290 315 324 320 311 313 318 325 328 324 324 320 315 315 315 314 308 306
269 269 267 263 263 262 260 258 255 252 251 252 253 256 259 260 260 259 260 268 299 264 301 307 315 328 323 320 318 307 308 314 319 323 322 323 320 320 316 313 315 305 307
269 266 266 266 265 262 256 252 251 251 251 254 259 262 262 265 262 255 252 250 257 297 300 310 336 331 330 327 330 320 313 313 314 310 311 312 314 314 316 308 317 314 318
268 270 268 266 262 256 252 249 249 249 252 256 258 260 263 264 261 252 247 249 254 260 274 303 320 324 332 334 336 333 325 314 311 306 304 306 304 304 308 311 312 313 313
265 265 266 261 255 251 249 247 247 248 250 250 248 252 259 258 255 256 248 245 247 261 278 295 315 332 340 339 348 346 334 325 319 311 311 313 311 309 310 310 310 312 309
267 266 260 259 255 250 248 246 244 245 244 237 234 238 246 254 257 252 245 243 248 262 279 292 316 329 340 342 346 349 346 337 325 317 314 317 322 324 323 321 318 314 309
264 268 268 262 253 247 245 244 244 243 236 228 231 239 249 257 260 259 250 248 256 262 274 290 304 322 331 336 340 345 351 347 343 340 335 333 335 337 333 333 332 324 312
260 261 263 263 256 251 249 248 246 240 233 235 242 250 251 255 256 259 261 262 266 270 276 284 297 307 315 325 329 334 340 351 349 348 348 344 341 345 346 343 344 343 333
259 258 259 261 259 259 259 254 246 237 241 246 248 251 255 258 260 261 264 266 267 268 272 280 286 296 307 312 320 327 328 332 341 334 345 346 342 342 346 346 346 345 347
264 259 259 262 263 261 256 249 246 248 250 252 254 258 261 262 263 265 266 264 264 266 269 272 278 283 295 303 309 316 320 324 332 330 329 341 332 335 339 337 340 342 346
263 267 265 264 262 257 251 249 252 254 255 257 260 260 261 264 265 265 266 268 267 266 268 270 273 278 287 297 299 305 309 310 312 321 322 323 325 327 331 331 329 338 342
267 265 265 265 264 260 255 255 255 257 259 259 260 262 263 265 265 266 266 266 266 267 266 269 273 279 283 288 291 294 299 303 305 309 314 312 317 316 323 322 313 325 335
267 268 268 265 264 263 260 257 256 257 259 262 263 264 265 267 268 268 266 267 268 267 267 267 269 273 277 280 283 287 293 299 303 304 307 302 306 313 319 317 303 309 323
273 270 269 268 268 267 265 261 259 260 261 263 264 266 266 266 268 268 266 265 268 269 272 268 265 269 271 273 277 280 284 287 289 298 297 295 301 312 316 308 297 311 313